Location: Muenchen
(48.1800°N, 11.5800°E)
Time: 02:43:44
(UTC+02:00)

Iridium 36 - Visible Passes

Search period start: 25 April 2014 00:00
Search period end: 05 May 2014 00:00
Orbit: 773 x 776 km, 86.4° (Epoch: 24 April)

Date Brightness Start Highest point End Pass type
(mag) Time Alt. Az. Time Alt. Az. Time Alt. Az.
25 Apr 6.8 03:09:02 10° N 03:13:50 36° ENE 03:17:57 13° SE visible
25 Apr 6.3 04:49:51 10° NNW 04:54:25 32° W 04:58:21 13° SW visible
26 Apr 7.6 02:35:12 10° NNE 02:39:11 22° ENE 02:43:08 10° ESE visible
26 Apr 5.6 04:15:09 10° NNW 04:20:14 56° W 04:23:47 19° SSW visible
27 Apr 8.1 02:02:07 10° NE 02:04:23 13° ENE 02:06:38 10° E visible
27 Apr 5.5 03:40:41 10° N 03:45:55 84° E 03:49:15 23° S visible
27 Apr 7.3 05:23:09 10° NW 05:25:49 14° WNW 05:28:30 10° WSW visible
28 Apr 6.3 03:06:25 10° N 03:11:28 48° E 03:14:44 21° SSE visible
28 Apr 6.7 04:47:41 10° NNW 04:51:49 25° W 04:55:07 14° SW visible
29 Apr 7.2 02:32:25 10° NNE 02:36:53 28° ENE 02:40:14 15° SE visible
29 Apr 6.0 04:12:49 10° NNW 04:17:42 42° W 04:20:38 22° SW visible
30 Apr 7.9 01:58:51 10° NNE 02:02:09 17° ENE 02:05:25 10° ESE visible
30 Apr 5.4 03:38:14 10° N 03:43:26 74° W 03:46:09 29° S visible
30 Apr 7.5 05:22:06 10° WNW 05:23:07 11° WNW 05:24:09 10° W visible
01 May 5.8 03:03:52 10° N 03:09:03 64° E 03:11:41 29° SSE visible
01 May 7.1 04:45:38 10° NW 04:49:11 19° WNW 04:52:05 12° WSW visible
02 May 6.7 02:29:43 10° N 02:34:32 36° ENE 02:37:14 22° SE visible
02 May 6.4 04:10:33 10° NNW 04:15:07 32° W 04:17:38 21° SW visible
03 May 7.5 01:55:54 10° NNE 01:59:52 22° ENE 02:02:48 14° ESE visible
03 May 5.7 03:35:50 10° NNW 03:40:55 56° W 03:43:11 31° SSW visible
04 May 8.0 01:22:49 10° NE 01:25:03 13° ENE 01:27:17 10° E visible
04 May 5.5 03:01:21 10° N 03:06:36 84° E 03:08:46 36° S visible
04 May 7.4 04:43:49 10° NW 04:46:30 14° WNW 04:49:10 10° WSW visible
